Vorticity
nan nan nan nan nan nan nan nan nan nan nan nan nan nan nan nan nan nan nan nan nan nan nan nan nan nan nan nan nan nan nan nan nan
nan 5 7 7 6 5 5 4 4 5 6 6 3 -0 7 12 6 6 6 7 6 5 5 5 5 5 5 5 5 5 5 5 nan
nan 6 5 6 6 5 5 5 5 6 6 5 3 1 7 11 5 6 6 8 6 5 5 5 5 6 5 5 5 5 6 5 nan
nan 5 5 5 5 5 6 6 6 6 5 3 1 3 9 10 7 6 5 7 6 5 5 5 5 5 5 6 6 5 5 5 nan
nan 4 6 8 7 6 7 7 6 5 5 3 3 2 12 7 5 6 9 8 6 5 5 5 5 5 5 5 5 6 6 5 nan
nan 4 7 9 8 7 6 7 4 2 4 5 2 5 11 5 6 7 9 7 5 5 5 5 5 5 5 5 5 5 5 5 nan
nan 3 7 6 4 4 5 5 3 1 2 4 8 10 7 5 7 8 8 7 6 5 5 5 5 5 5 5 5 5 5 5 nan
nan 4 5 5 2 3 5 2 4 6 5 7 10 10 5 6 7 8 8 7 6 5 5 5 5 5 5 5 5 5 5 5 nan
nan 7 7 4 5 6 3 5 9 8 6 8 7 6 5 7 7 7 8 7 6 5 5 5 5 5 5 5 5 5 5 5 nan
nan 7 7 6 8 6 5 8 7 8 7 6 6 7 7 6 6 9 7 6 6 5 5 5 5 5 5 5 5 5 5 5 nan
nan 7 8 7 7 7 8 8 7 7 7 7 6 5 6 6 7 8 8 7 6 6 5 5 5 5 5 5 5 5 5 4 nan
nan 8 6 8 9 7 6 7 7 7 7 7 6 7 6 5 6 6 8 7 7 8 6 5 5 5 5 5 5 5 5 5 nan
nan 7 6 9 7 7 8 7 7 7 7 7 7 7 7 7 6 4 5 8 8 9 9 8 8 6 4 4 5 5 5 5 nan
nan 6 9 7 6 7 7 8 7 6 7 7 7 7 7 7 8 7 7 5 7 13 12 6 7 8 7 5 5 5 5 5 nan
nan 8 8 5 7 7 8 8 7 7 8 7 7 7 6 8 9 9 7 9 8 5 9 11 9 10 8 8 6 7 7 6 nan
nan 8 9 6 7 8 7 7 7 6 8 8 8 8 10 8 8 8 10 9 8 9 7 6 10 14 12 8 7 6 5 6 nan
nan 8 9 7 6 9 8 6 6 8 7 4 7 13 11 10 12 9 9 8 10 10 9 9 6 8 15 17 14 9 9 9 nan
nan 8 7 8 6 10 9 7 7 6 7 7 7 9 7 11 11 10 9 10 9 8 9 12 10 9 10 16 17 13 12 13 nan
nan 7 8 7 7 9 8 8 7 8 8 8 8 5 8 8 8 9 8 7 8 11 10 8 11 13 10 9 9 10 10 11 nan
nan nan nan nan nan nan nan nan nan nan nan nan nan nan nan nan nan nan nan nan nan nan nan nan nan nan nan nan nan nan nan nan nan
CAPE
1241 922 1022 872 672 619 642 306 7 5 5 2 0 0 0 0 0 0 5 6 10 16 17 18 16 15 13 15 15 15 21 12 19
1200 905 1009 910 664 533 393 64 5 3 1 0 0 0 0 0 0 2 4 12 15 17 16 17 15 14 16 11 14 14 13 18 15
1161 1029 928 833 540 416 265 5 5 1 0 0 0 0 0 0 0 6 8 23 15 12 14 11 10 12 14 12 12 13 13 13 14
906 829 919 875 629 437 280 5 2 0 0 0 0 0 0 0 0 0 4 12 15 16 13 13 13 14 13 13 10 13 14 10 12
505 509 718 748 465 370 164 6 1 0 0 0 0 0 0 0 0 0 4 21 11 9 10 9 9 10 8 10 8 8 7 11 9
171 51 394 411 356 188 64 1 0 0 0 0 0 0 0 0 0 0 13 10 7 8 6 6 5 4 4 4 3 3 4 5 4
58 101 234 268 159 32 0 0 0 0 0 0 0 0 0 0 0 0 12 5 5 4 3 3 2 2 2 2 2 1 0 1 1
86 255 247 183 0 1 0 0 0 0 0 0 0 0 0 0 0 0 5 4 3 3 1 1 1 1 0 0 0 0 0 0 0
17 50 35 110 13 0 0 0 0 0 0 0 0 0 0 0 0 0 0 4 2 3 1 0 0 0 0 0 0 0 0 0 0
1 19 30 43 16 0 0 0 0 0 0 0 0 0 0 0 0 0 0 0 2 1 1 1 0 0 0 0 0 0 0 0 0
13 18 24 13 15 2 0 0 0 0 0 0 0 0 0 0 0 0 0 0 0 0 1 2 2 1 1 0 0 0 0 0 0
125 78 24 15 10 0 0 0 2 0 0 0 0 0 0 0 0 0 0 0 0 0 1 3 3 2 4 3 0 0 0 0 0
45 74 14 11 9 0 0 2 1 1 0 0 0 0 0 0 0 0 0 0 0 0 0 34 6 4 4 5 3 0 0 0 0
10 22 11 13 8 3 1 1 0 23 7 4 0 0 4 0 0 0 0 0 0 1 0 0 12 50 34 9 21 10 0 0 0
42 144 115 21 16 4 0 0 0 16 7 0 0 0 0 0 0 0 0 0 0 0 1 0 0 0 64 107 95 144 170 77 22
6 23 37 24 12 5 0 0 0 0 21 11 4 4 5 0 0 0 0 0 0 0 0 8 28 2 3 91 148 178 178 139 134
4 8 14 9 16 8 0 0 0 10 19 25 113 61 61 13 24 27 7 0 1 0 0 0 3 42 61 26 44 98 116 173 204
10 15 16 14 8 3 0 3 36 23 36 23 122 121 88 17 0 8 4 9 12 11 0 0 0 5 2 28 7 0 1 4 27
24 31 37 10 4 0 0 13 29 62 126 60 43 145 120 43 57 41 24 7 5 1 0 0 0 0 0 0 0 0 0 0 0
45 43 6 2 0 0 9 10 34 70 242 325 196 215 97 93 104 76 76 1 0 0 0 0 0 0 0 0 0 0 0 0 0